• In Österreich
  • Länderverzeichnis
  • Für 7 Tage
  • Wassertemperatur
  • Satellitenkarten
  • Wetterkarte
  • News
  • Widgets
  • user-avatar
    Anmelden

    Stündliche Wetter Baku

    Heute, 25 Mai, Freitag

    Zeit Temperatur Niederschläge Wind Luftdruck Luftfeuchtigkeit
    00:00 +26°C° 0 mm 2 m/S 757 mmHg 49%
    01:00 +25°C° 0 mm 1 m/S 756 mmHg 49%
    02:00 +25°C° 0 mm 1 m/S 756 mmHg 49%
    03:00 +25°C° 0 mm 1 m/S 756 mmHg 48%
    04:00 +25°C° 0 mm 1 m/S 756 mmHg 46%
    05:00 +26°C° 0 mm 1 m/S 756 mmHg 44%
    06:00 +26°C° 0 mm 1 m/S 756 mmHg 42%
    07:00 +27°C° 0 mm 1 m/S 756 mmHg 38%
    08:00 +28°C° 0 mm 1 m/S 756 mmHg 35%
    09:00 +30°C° 0 mm 1 m/S 756 mmHg 31%
    10:00 +30°C° 0 mm 1 m/S 756 mmHg 30%
    11:00 +31°C° 0 mm 2 m/S 756 mmHg 29%
    12:00 +33°C° 0 mm 3 m/S 756 mmHg 28%
    13:00 +33°C° 0 mm 3 m/S 755 mmHg 28%
    14:00 +33°C° 0 mm 3 m/S 755 mmHg 28%
    15:00 +33°C° 0 mm 3 m/S 755 mmHg 29%
    16:00 +31°C° 0 mm 3 m/S 754 mmHg 29%
    17:00 +31°C° 0 mm 3 m/S 754 mmHg 30%
    18:00 +31°C° 0 mm 2 m/S 754 mmHg 30%
    19:00 +30°C° 0 mm 2 m/S 754 mmHg 32%
    20:00 +29°C° 0 mm 2 m/S 754 mmHg 34%
    21:00 +29°C° 0 mm 2 m/S 755 mmHg 36%
    22:00 +28°C° 0 mm 2 m/S 754 mmHg 37%
    23:00 +28°C° 0 mm 2 m/S 754 mmHg 38%

    Morgen, 26 Mai, Samstag

    Zeit Temperatur Niederschläge Wind Luftdruck Luftfeuchtigkeit
    00:00 +27°C° 0 mm 2 m/S 754 mmHg 39%
    01:00 +27°C° 0 mm 2 m/S 754 mmHg 43%
    02:00 +26°C° 0 mm 3 m/S 754 mmHg 46%
    03:00 +25°C° 0 mm 3 m/S 754 mmHg 49%
    04:00 +26°C° 0 mm 3 m/S 754 mmHg 49%
    05:00 +26°C° 0 mm 3 m/S 754 mmHg 48%
    06:00 +26°C° 0 mm 4 m/S 754 mmHg 48%
    07:00 +27°C° 0 mm 4 m/S 755 mmHg 48%
    08:00 +28°C° 0 mm 4 m/S 755 mmHg 48%
    09:00 +29°C° 0 mm 5 m/S 755 mmHg 48%
    10:00 +30°C° 0 mm 5 m/S 755 mmHg 47%
    11:00 +30°C° 0 mm 5 m/S 755 mmHg 46%
    12:00 +32°C° 0 mm 5 m/S 756 mmHg 45%
    13:00 +32°C° 0 mm 6 m/S 756 mmHg 45%
    14:00 +32°C° 0 mm 6 m/S 756 mmHg 45%
    15:00 +32°C° 0 mm 7 m/S 756 mmHg 45%
    16:00 +31°C° 0 mm 8 m/S 756 mmHg 50%
    17:00 +29°C° 0 mm 9 m/S 756 mmHg 55%
    18:00 +28°C° 0 mm 11 m/S 756 mmHg 60%
    19:00 +27°C° 0 mm 13 m/S 757 mmHg 64%
    20:00 +24°C° 0 mm 15 m/S 758 mmHg 67%
    21:00 +23°C° 0 mm 17 m/S 759 mmHg 71%
    22:00 +22°C° 0 mm 17 m/S 759 mmHg 70%
    23:00 +22°C° 0 mm 18 m/S 760 mmHg 69%

    übermorgen, 27 Mai, Sonntag

    Zeit Temperatur Niederschläge Wind Luftdruck Luftfeuchtigkeit
    00:00 +20°C° 0 mm 18 m/S 761 mmHg 68%
    01:00 +20°C° 0,1 mm 18 m/S 761 mmHg 65%
    02:00 +20°C° 0,1 mm 17 m/S 762 mmHg 62%
    03:00 +19°C° 0,1 mm 17 m/S 762 mmHg 60%
    04:00 +19°C° 0 mm 17 m/S 763 mmHg 59%
    05:00 +19°C° 0 mm 16 m/S 764 mmHg 59%
    06:00 +19°C° 0 mm 16 m/S 764 mmHg 59%
    07:00 +19°C° 0,2 mm 15 m/S 765 mmHg 60%
    08:00 +19°C° 0,2 mm 14 m/S 766 mmHg 61%
    09:00 +19°C° 0,2 mm 14 m/S 766 mmHg 61%
    10:00 +19°C° 0 mm 13 m/S 767 mmHg 61%
    11:00 +19°C° 0 mm 12 m/S 767 mmHg 61%
    12:00 +19°C° 0 mm 11 m/S 768 mmHg 60%
    13:00 +19°C° 0 mm 10 m/S 768 mmHg 58%
    14:00 +19°C° 0 mm 10 m/S 768 mmHg 57%
    15:00 +19°C° 0 mm 9 m/S 768 mmHg 55%
    16:00 +20°C° 0 mm 8 m/S 768 mmHg 54%
    17:00 +20°C° 0 mm 7 m/S 768 mmHg 52%
    18:00 +20°C° 0 mm 6 m/S 768 mmHg 51%
    19:00 +20°C° 0 mm 5 m/S 768 mmHg 49%
    20:00 +20°C° 0 mm 4 m/S 768 mmHg 48%
    21:00 +19°C° 0 mm 3 m/S 768 mmHg 46%
    22:00 +19°C° 0 mm 2 m/S 768 mmHg 46%
    23:00 +19°C° 0 mm 2 m/S 767 mmHg 46%

    28 Mai, Montag

    Zeit Temperatur Niederschläge Wind Luftdruck Luftfeuchtigkeit
    00:00 +20°C° 0 mm 1 m/S 767 mmHg 46%
    01:00 +20°C° 0 mm 1 m/S 767 mmHg 46%
    02:00 +19°C° 0 mm 2 m/S 766 mmHg 47%
    03:00 +19°C° 0 mm 2 m/S 766 mmHg 47%
    04:00 +19°C° 0 mm 2 m/S 766 mmHg 47%
    05:00 +20°C° 0 mm 3 m/S 765 mmHg 47%
    06:00 +20°C° 0 mm 4 m/S 765 mmHg 47%
    07:00 +21°C° 0 mm 4 m/S 765 mmHg 45%
    08:00 +22°C° 0 mm 5 m/S 765 mmHg 42%
    09:00 +23°C° 0 mm 6 m/S 764 mmHg 40%
    10:00 +24°C° 0 mm 6 m/S 764 mmHg 38%
    11:00 +26°C° 0 mm 6 m/S 763 mmHg 37%
    12:00 +27°C° 0 mm 6 m/S 763 mmHg 35%
    13:00 +27°C° 0 mm 6 m/S 762 mmHg 36%
    14:00 +27°C° 0 mm 6 m/S 762 mmHg 37%
    15:00 +27°C° 0 mm 6 m/S 761 mmHg 39%
    16:00 +27°C° 0 mm 5 m/S 761 mmHg 42%
    17:00 +26°C° 0 mm 5 m/S 761 mmHg 44%
    18:00 +25°C° 0 mm 4 m/S 761 mmHg 47%
    19:00 +25°C° 0 mm 3 m/S 761 mmHg 49%
    20:00 +25°C° 0 mm 2 m/S 762 mmHg 50%
    21:00 +24°C° 0 mm 1 m/S 762 mmHg 52%
    22:00 +24°C° 0 mm 1 m/S 762 mmHg 52%
    23:00 +24°C° 0 mm 2 m/S 762 mmHg 53%

    29 Mai, Dienstag

    Zeit Temperatur Niederschläge Wind Luftdruck Luftfeuchtigkeit
    00:00 +24°C° 0 mm 2 m/S 761 mmHg 54%
    01:00 +23°C° 0 mm 4 m/S 761 mmHg 57%
    02:00 +22°C° 0 mm 5 m/S 761 mmHg 60%
    03:00 +22°C° 0 mm 7 m/S 761 mmHg 64%
    04:00 +22°C° 0 mm 7 m/S 762 mmHg 63%
    05:00 +22°C° 0 mm 7 m/S 762 mmHg 63%
    06:00 +22°C° 0 mm 8 m/S 762 mmHg 62%
    07:00 +23°C° 0 mm 8 m/S 762 mmHg 60%
    08:00 +23°C° 0 mm 8 m/S 762 mmHg 57%
    09:00 +24°C° 0 mm 8 m/S 763 mmHg 54%
    10:00 +24°C° 0 mm 8 m/S 763 mmHg 53%
    11:00 +26°C° 0 mm 8 m/S 763 mmHg 52%
    12:00 +26°C° 0 mm 8 m/S 763 mmHg 50%
    13:00 +26°C° 0 mm 8 m/S 763 mmHg 51%
    14:00 +26°C° 0 mm 8 m/S 763 mmHg 52%
    15:00 +26°C° 0 mm 8 m/S 762 mmHg 53%
    16:00 +24°C° 0 mm 8 m/S 762 mmHg 54%
    17:00 +24°C° 0 mm 8 m/S 762 mmHg 54%
    18:00 +24°C° 0 mm 8 m/S 762 mmHg 55%
    19:00 +23°C° 0 mm 8 m/S 763 mmHg 57%
    20:00 +23°C° 0 mm 7 m/S 764 mmHg 60%
    21:00 +22°C° 0 mm 7 m/S 764 mmHg 63%
    22:00 +22°C° 0 mm 8 m/S 764 mmHg 62%
    23:00 +22°C° 0 mm 8 m/S 764 mmHg 62%

    30 Mai, Mittwoch

    Zeit Temperatur Niederschläge Wind Luftdruck Luftfeuchtigkeit
    00:00 +21°C° 0 mm 9 m/S 764 mmHg 62%
    01:00 +21°C° 0 mm 8 m/S 764 mmHg 61%
    02:00 +21°C° 0 mm 7 m/S 764 mmHg 60%
    03:00 +21°C° 0 mm 7 m/S 764 mmHg 59%
    04:00 +21°C° 0 mm 7 m/S 764 mmHg 58%
    05:00 +21°C° 0 mm 6 m/S 764 mmHg 57%
    06:00 +21°C° 0 mm 6 m/S 764 mmHg 55%
    07:00 +21°C° 0 mm 6 m/S 765 mmHg 53%
    08:00 +21°C° 0 mm 5 m/S 765 mmHg 51%
    09:00 +22°C° 0 mm 5 m/S 765 mmHg 49%
    10:00 +22°C° 0 mm 5 m/S 764 mmHg 47%
    11:00 +22°C° 0 mm 4 m/S 764 mmHg 45%
    12:00 +23°C° 0 mm 4 m/S 764 mmHg 43%
    13:00 +23°C° 0 mm 4 m/S 764 mmHg 42%
    14:00 +25°C° 0 mm 4 m/S 763 mmHg 40%
    15:00 +25°C° 0 mm 4 m/S 763 mmHg 39%
    16:00 +25°C° 0 mm 4 m/S 763 mmHg 39%
    17:00 +23°C° 0 mm 4 m/S 763 mmHg 40%
    18:00 +23°C° 0 mm 4 m/S 762 mmHg 40%
    19:00 +23°C° 0 mm 4 m/S 762 mmHg 41%
    20:00 +24°C° 0 mm 3 m/S 762 mmHg 41%
    21:00 +22°C° 0 mm 3 m/S 762 mmHg 42%
    22:00 +22°C° 0 mm 3 m/S 762 mmHg 43%
    23:00 +22°C° 0 mm 3 m/S 761 mmHg 45%
    Mehr zeigen